Time,TemperatureF,DewpointF,PressureIn,WindDirection,WindDirectionDegrees,WindSpeedMPH,WindSpeedGustMPH,Humidity,HourlyPrecipIn,Conditions,Clouds,dailyrainin,SoftwareType,DateUTC
2013-06-07 00:03:00,72.0,-99.9,-100.00,North,-999,-999.0,-999.0,-999,0.06,,,0.08,,2013-06-07 04:03:00,
2013-06-07 00:13:00,72.0,-99.9,-100.00,North,-999,-999.0,-999.0,-999,0.06,,,0.08,,2013-06-07 04:13:00,
2013-06-07 00:54:00,73.0,-99.9,-100.00,North,-999,-999.0,-999.0,-999,0.00,,,0.08,,2013-06-07 04:54:00,
2013-06-07 01:03:00,73.0,-99.9,-100.00,North,-999,-999.0,-999.0,-999,0.00,,,0.08,,2013-06-07 05:03:00,
2013-06-07 01:12:00,73.0,-99.9,-100.00,North,-999,-999.0,-999.0,-999,0.00,,,0.08,,2013-06-07 05:12:00,
2013-06-07 01:52:00,72.0,-99.9,-100.00,North,-999,-999.0,-999.0,-999,0.00,,,0.08,,2013-06-07 05:52:00,
2013-06-07 02:02:00,72.0,-99.9,-100.00,North,-999,-999.0,-999.0,-999,0.00,,,0.08,,2013-06-07 06:02:00,
2013-06-07 02:13:00,72.0,-99.9,-100.00,North,-999,-999.0,-999.0,-999,0.00,,,0.08,,2013-06-07 06:13:00,
2013-06-07 02:52:00,71.0,-99.9,-100.00,North,-999,-999.0,-999.0,-999,0.00,,,0.08,,2013-06-07 06:52:00,
2013-06-07 03:12:00,71.0,-99.9,-100.00,North,-999,-999.0,-999.0,-999,0.00,,,0.08,,2013-06-07 07:12:00,
2013-06-07 03:52:00,71.0,-99.9,-100.00,North,-999,-999.0,-999.0,-999,0.00,,,0.08,,2013-06-07 07:52:00,
2013-06-07 04:02:00,71.0,-99.9,-100.00,North,-999,-999.0,-999.0,-999,0.00,,,0.08,,2013-06-07 08:02:00,
2013-06-07 04:12:00,71.0,-99.9,-100.00,North,-999,-999.0,-999.0,-999,0.00,,,0.08,,2013-06-07 08:12:00,
2013-06-07 04:52:00,70.0,-99.9,-100.00,North,-999,-999.0,-999.0,-999,0.06,,,0.14,,2013-06-07 08:52:00,
2013-06-07 05:02:00,70.0,-99.9,-100.00,North,-999,-999.0,-999.0,-999,0.06,,,0.14,,2013-06-07 09:02:00,
2013-06-07 05:12:00,70.0,-99.9,-100.00,North,-999,-999.0,-999.0,-999,0.06,,,0.14,,2013-06-07 09:12:00,
2013-06-07 05:53:00,70.0,-99.9,-100.00,North,-999,-999.0,-999.0,-999,0.05,,,0.19,,2013-06-07 09:53:00,
2013-06-07 06:03:00,70.0,-99.9,-100.00,North,-999,-999.0,-999.0,-999,0.05,,,0.19,,2013-06-07 10:03:00,
2013-06-07 06:13:00,70.0,-99.9,-100.00,North,-999,-999.0,-999.0,-999,0.05,,,0.19,,2013-06-07 10:13:00,
2013-06-07 08:52:00,70.0,-99.9,-100.00,North,-999,-999.0,-999.0,-999,0.15,,,0.86,,2013-06-07 12:52:00,
2013-06-07 09:02:00,70.0,-99.9,-100.00,North,-999,-999.0,-999.0,-999,0.15,,,0.86,,2013-06-07 13:02:00,
2013-06-07 09:13:00,70.0,-99.9,-100.00,North,-999,-999.0,-999.0,-999,0.15,,,0.86,,2013-06-07 13:13:00,
2013-06-07 09:53:00,69.0,-99.9,-100.00,North,-999,-999.0,-999.0,-999,0.14,,,-99.99,,2013-06-07 13:53:00,
2013-06-07 10:03:00,69.0,-99.9,-100.00,North,-999,-999.0,-999.0,-999,0.14,,,-99.99,,2013-06-07 14:03:00,
2013-06-07 10:13:00,69.0,-99.9,-100.00,North,-999,-999.0,-999.0,-999,0.14,,,-99.99,,2013-06-07 14:13:00,
2013-06-07 10:52:00,72.0,-99.9,-100.00,North,-999,-999.0,-999.0,-999,0.01,,,-99.99,,2013-06-07 14:52:00,
2013-06-07 11:03:00,72.0,-99.9,-100.00,North,-999,-999.0,-999.0,-999,0.01,,,-99.99,,2013-06-07 15:03:00,
2013-06-07 11:13:00,72.0,-99.9,-100.00,North,-999,-999.0,-999.0,-999,0.01,,,-99.99,,2013-06-07 15:13:00,
2013-06-07 12:53:00,74.0,-99.9,-100.00,North,-999,-999.0,-999.0,-999,0.10,,,1.20,,2013-06-07 16:53:00,
2013-06-07 13:03:00,74.0,-99.9,-100.00,North,-999,-999.0,-999.0,-999,0.10,,,1.20,,2013-06-07 17:03:00,
2013-06-07 13:13:00,74.0,-99.9,-100.00,North,-999,-999.0,-999.0,-999,0.10,,,1.20,,2013-06-07 17:13:00,
2013-06-07 13:15:00,73.0,-99.9,-100.00,North,-999,-999.0,-999.0,-999,0.08,,,1.28,,2013-06-07 17:15:00,
2013-06-07 13:53:00,73.0,-99.9,-100.00,North,-999,-999.0,-999.0,-999,0.08,,,1.28,,2013-06-07 17:53:00,
2013-06-07 14:12:00,73.0,-99.9,-100.00,North,-999,-999.0,-999.0,-999,0.08,,,1.28,,2013-06-07 18:12:00,
2013-06-07 14:15:00,75.0,-99.9,-100.00,North,-999,-999.0,-999.0,-999,0.04,,,1.32,,2013-06-07 18:15:00,
2013-06-07 15:05:00,75.0,-99.9,-100.00,North,-999,-999.0,-999.0,-999,0.04,,,1.32,,2013-06-07 19:05:00,
2013-06-07 15:11:00,75.0,-99.9,-100.00,North,-999,-999.0,-999.0,-999,0.04,,,1.32,,2013-06-07 19:11:00,
2013-06-07 16:02:00,72.0,-99.9,-100.00,North,-999,-999.0,-999.0,-999,0.13,,,1.45,,2013-06-07 20:02:00,
2013-06-07 16:10:00,72.0,-99.9,-100.00,North,-999,-999.0,-999.0,-999,0.13,,,1.45,,2013-06-07 20:10:00,
2013-06-07 18:07:00,69.0,-99.9,-100.00,North,-999,-999.0,-999.0,-999,0.18,,,2.17,,2013-06-07 22:07:00,
2013-06-07 18:15:00,70.0,-99.9,-100.00,North,-999,-999.0,-999.0,-999,0.15,,,2.32,,2013-06-07 22:15:00,
2013-06-07 19:04:00,70.0,-99.9,-100.00,North,-999,-999.0,-999.0,-999,0.15,,,2.32,,2013-06-07 23:04:00,
2013-06-07 19:14:00,70.0,-99.9,-100.00,North,-999,-999.0,-999.0,-999,0.15,,,2.32,,2013-06-07 23:14:00,
2013-06-07 19:15:00,70.0,-99.9,-100.00,North,-999,-999.0,-999.0,-999,0.02,,,2.33,,2013-06-07 23:15:00,
2013-06-07 21:05:00,70.0,-99.9,-100.00,North,-999,-999.0,-999.0,-999,0.00,,,2.33,,2013-06-08 01:05:00,
2013-06-07 22:08:00,71.0,-99.9,-100.00,North,-999,-999.0,-999.0,-999,0.00,,,2.33,,2013-06-08 02:08:00,
2013-06-07 22:14:00,71.0,-99.9,-100.00,North,-999,-999.0,-999.0,-999,0.00,,,2.33,,2013-06-08 02:14:00,